TimeEST,TemperatureF,Dew PointF,Humidity,Sea Level PressureIn,VisibilityMPH,Wind Direction,Wind SpeedMPH,Gust SpeedMPH,PrecipitationIn,Events,Conditions,WindDirDegrees,DateUTC
12:53 AM,36.0,32.0,86,30.15,10.0,NE,6.9,-,N/A,,Overcast,40,2012-12-09 05:53:00
1:53 AM,36.0,32.0,86,30.16,10.0,ENE,8.1,-,N/A,,Overcast,60,2012-12-09 06:53:00
2:53 AM,36.0,32.0,86,30.16,10.0,ENE,8.1,-,N/A,,Overcast,60,2012-12-09 07:53:00
3:53 AM,36.0,32.0,86,30.14,10.0,East,9.2,-,N/A,,Overcast,90,2012-12-09 08:53:00
4:07 AM,35.6,32.0,87,30.11,10.0,East,9.2,-,N/A,,Overcast,80,2012-12-09 09:07:00
4:53 AM,37.0,33.1,86,30.14,10.0,East,10.4,-,N/A,,Overcast,80,2012-12-09 09:53:00
5:53 AM,37.9,34.0,86,30.12,10.0,East,11.5,-,N/A,,Overcast,80,2012-12-09 10:53:00
6:53 AM,37.9,34.0,86,30.12,10.0,East,10.4,-,N/A,,Overcast,90,2012-12-09 11:53:00
7:18 AM,37.4,33.8,87,30.10,10.0,East,8.1,-,N/A,,Overcast,80,2012-12-09 12:18:00
7:53 AM,37.9,34.0,86,30.10,10.0,East,8.1,-,N/A,,Overcast,90,2012-12-09 12:53:00
8:53 AM,39.0,33.1,79,30.07,10.0,East,11.5,-,N/A,,Overcast,90,2012-12-09 13:53:00
9:53 AM,37.9,33.1,83,30.05,7.0,East,15.0,20.7,0.01,Rain,Light Rain,90,2012-12-09 14:53:00
10:28 AM,37.4,33.8,87,30.02,4.0,East,12.7,21.9,0.01,Rain,Light Rain,90,2012-12-09 15:28:00
10:41 AM,37.4,33.8,87,30.01,3.0,East,13.8,-,0.01,Rain,Light Rain,90,2012-12-09 15:41:00
10:53 AM,37.0,34.0,89,30.03,4.0,East,13.8,-,0.01,Rain,Light Rain,90,2012-12-09 15:53:00
10:56 AM,37.4,33.8,87,30.00,5.0,East,12.7,-,0.00,Rain,Light Rain,90,2012-12-09 15:56:00
11:28 AM,37.4,33.8,87,29.98,6.0,East,10.4,-,0.01,Rain,Light Rain,80,2012-12-09 16:28:00
11:53 AM,37.0,34.0,89,29.98,5.0,East,13.8,-,0.02,Rain,Light Rain,90,2012-12-09 16:53:00
12:10 PM,37.4,35.6,93,29.96,5.0,East,8.1,-,0.01,Rain,Light Rain,90,2012-12-09 17:10:00
12:19 PM,37.4,35.6,93,29.96,4.0,East,9.2,-,0.02,Rain,Light Rain,100,2012-12-09 17:19:00
12:35 PM,37.4,35.6,93,29.93,4.0,East,11.5,-,0.04,Rain,Light Rain,90,2012-12-09 17:35:00
12:42 PM,37.4,35.6,93,29.92,4.0,East,12.7,-,0.06,Rain,Rain,100,2012-12-09 17:42:00
12:51 PM,37.4,35.6,93,29.91,5.0,East,10.4,-,0.06,Rain,Light Rain,80,2012-12-09 17:51:00
12:53 PM,37.0,35.1,93,29.93,5.0,East,11.5,-,0.06,Rain,Light Rain,90,2012-12-09 17:53:00
1:10 PM,37.4,35.6,93,29.89,9.0,East,12.7,-,0.00,,Overcast,90,2012-12-09 18:10:00
1:53 PM,37.9,35.1,89,29.89,6.0,East,9.2,-,0.01,Rain,Light Rain,90,2012-12-09 18:53:00
2:53 PM,39.0,36.0,89,29.85,7.0,ESE,9.2,-,0.04,,Overcast,110,2012-12-09 19:53:00
3:33 PM,39.2,37.4,93,29.82,4.0,ENE,5.8,-,0.01,Rain,Light Rain,60,2012-12-09 20:33:00
3:53 PM,39.0,37.0,93,29.83,4.0,East,9.2,-,0.01,,Overcast,100,2012-12-09 20:53:00
4:05 PM,39.2,37.4,93,29.80,2.0,East,8.1,-,N/A,,Overcast,100,2012-12-09 21:05:00
4:12 PM,39.2,37.4,93,29.80,1.2,East,5.8,-,N/A,,Overcast,100,2012-12-09 21:12:00
4:32 PM,39.2,37.4,93,29.79,1.0,East,6.9,-,N/A,,Overcast,100,2012-12-09 21:32:00
4:53 PM,39.0,37.9,96,29.81,1.2,East,5.8,-,N/A,,Overcast,100,2012-12-09 21:53:00
5:53 PM,39.9,39.0,97,29.78,1.0,East,5.8,-,N/A,,Mist,90,2012-12-09 22:53:00
6:33 PM,39.2,39.2,100,29.76,0.8,East,4.6,-,N/A,,Mist,80,2012-12-09 23:33:00
6:53 PM,39.9,39.0,97,29.77,0.8,NE,3.5,-,N/A,,Mist,50,2012-12-09 23:53:00
7:53 PM,39.9,39.9,100,29.75,0.5,Calm,Calm,-,N/A,Fog,Fog,0,2012-12-10 00:53:00
8:53 PM,41.0,39.9,96,29.73,0.8,Calm,Calm,-,N/A,,Mist,0,2012-12-10 01:53:00
9:30 PM,41.0,41.0,100,29.71,1.0,Calm,Calm,-,0.00,Rain,Light Rain,0,2012-12-10 02:30:00
9:50 PM,41.0,39.2,93,29.69,0.8,North,3.5,-,0.00,,Mist,350,2012-12-10 02:50:00
9:53 PM,41.0,39.9,96,29.70,0.5,NNW,3.5,-,0.00,Fog,Fog,340,2012-12-10 02:53:00
10:28 PM,41.0,39.2,93,29.68,1.0,Calm,Calm,-,0.00,Rain,Light Rain,0,2012-12-10 03:28:00
10:42 PM,41.0,41.0,100,29.67,1.8,Calm,Calm,-,0.01,Rain,Light Rain,0,2012-12-10 03:42:00
10:49 PM,41.0,41.0,100,29.67,1.8,Calm,Calm,-,0.01,Rain,Light Rain,0,2012-12-10 03:49:00
10:53 PM,41.0,39.9,96,29.69,1.8,Calm,Calm,-,0.01,Rain,Light Rain,0,2012-12-10 03:53:00
11:00 PM,41.0,39.2,93,29.66,2.0,ESE,3.5,-,0.00,Rain,Light Rain,120,2012-12-10 04:00:00
11:19 PM,41.0,39.2,93,29.66,2.5,Calm,Calm,-,0.00,Rain,Light Rain,0,2012-12-10 04:19:00
11:26 PM,41.0,39.2,93,29.65,2.5,Calm,Calm,-,0.01,Rain,Light Rain,0,2012-12-10 04:26:00
11:53 PM,41.0,39.0,93,29.68,2.0,Calm,Calm,-,0.01,,Overcast,0,2012-12-10 04:53:00